When you browse on this site, cookies collect data to enhance your experience and personalize the content and advertising you see.
Visit our Privacy Policy to learn more. By continuing to use the site, you agree to this use of cookies and data.
EN

Hourly Weather Aberkenfig

Today, 8 July, Wednesday

Time Temperature Precipitation Wind Pressure Humidity
00:00 +13°C° 0 mm 8 mps 751 mmHg 98%
01:00 +14°C° 0.7 mm 7 mps 750 mmHg 98%
02:00 +14°C° 0.7 mm 7 mps 750 mmHg 98%
03:00 +14°C° 0.7 mm 6 mps 750 mmHg 98%
04:00 +14°C° 1.2 mm 6 mps 750 mmHg 98%
05:00 +14°C° 1.2 mm 5 mps 750 mmHg 98%
06:00 +14°C° 0 mm 5 mps 750 mmHg 98%
07:00 +14°C° 0.4 mm 5 mps 750 mmHg 98%
08:00 +15°C° 0.4 mm 5 mps 750 mmHg 98%
09:00 +15°C° 0.4 mm 4 mps 750 mmHg 98%
10:00 +15°C° 0.1 mm 4 mps 750 mmHg 96%
11:00 +17°C° 0.1 mm 4 mps 750 mmHg 95%
12:00 +17°C° 0.1 mm 4 mps 751 mmHg 93%
13:00 +16°C° 0 mm 5 mps 751 mmHg 94%
14:00 +16°C° 0 mm 6 mps 751 mmHg 94%
15:00 +16°C° 0 mm 6 mps 751 mmHg 95%
16:00 +15°C° 0.3 mm 6 mps 750 mmHg 96%
17:00 +15°C° 0.3 mm 7 mps 750 mmHg 97%
18:00 +15°C° 0.3 mm 7 mps 750 mmHg 98%
19:00 +15°C° 0.4 mm 6 mps 750 mmHg 98%
20:00 +15°C° 0.4 mm 6 mps 750 mmHg 97%
21:00 +15°C° 0.4 mm 6 mps 750 mmHg 97%
22:00 +15°C° 0.4 mm 6 mps 749 mmHg 97%
23:00 +14°C° 0.4 mm 7 mps 749 mmHg 97%

Tomorrow, 9 July, Thursday

Time Temperature Precipitation Wind Pressure Humidity
00:00 +14°C° 0.4 mm 7 mps 749 mmHg 97%
01:00 +15°C° 0.7 mm 8 mps 748 mmHg 97%
02:00 +15°C° 0.7 mm 8 mps 748 mmHg 98%
03:00 +15°C° 0.7 mm 8 mps 748 mmHg 98%
04:00 +15°C° 0.2 mm 8 mps 748 mmHg 98%
05:00 +15°C° 0.2 mm 8 mps 747 mmHg 98%
06:00 +15°C° 0.2 mm 8 mps 747 mmHg 97%
07:00 +15°C° 0.2 mm 7 mps 748 mmHg 97%
08:00 +15°C° 0.2 mm 7 mps 748 mmHg 97%
09:00 +15°C° 0.2 mm 6 mps 748 mmHg 97%
10:00 +15°C° 0.1 mm 6 mps 748 mmHg 97%
11:00 +15°C° 0.1 mm 6 mps 748 mmHg 96%
12:00 +16°C° 0.1 mm 5 mps 748 mmHg 96%
13:00 +15°C° 0.1 mm 5 mps 748 mmHg 96%
14:00 +15°C° 0.1 mm 5 mps 749 mmHg 96%
15:00 +15°C° 0.1 mm 4 mps 749 mmHg 96%
16:00 +15°C° 0 mm 4 mps 749 mmHg 95%
17:00 +17°C° 0 mm 4 mps 748 mmHg 93%
18:00 +17°C° 0 mm 4 mps 748 mmHg 91%
19:00 +15°C° 0 mm 4 mps 749 mmHg 92%
20:00 +14°C° 0 mm 4 mps 749 mmHg 93%
21:00 +13°C° 0 mm 4 mps 750 mmHg 94%
22:00 +13°C° 0 mm 4 mps 750 mmHg 95%
23:00 +12°C° 0 mm 4 mps 750 mmHg 95%

Day after tomorrow, 10 July, Friday

Time Temperature Precipitation Wind Pressure Humidity
00:00 +11°C° 0 mm 3 mps 750 mmHg 95%
01:00 +11°C° 0 mm 3 mps 750 mmHg 95%
02:00 +10°C° 0 mm 3 mps 751 mmHg 95%
03:00 +9°C° 0 mm 3 mps 751 mmHg 94%
04:00 +10°C° 0 mm 4 mps 751 mmHg 93%
05:00 +10°C° 0 mm 4 mps 752 mmHg 91%
06:00 +10°C° 0 mm 4 mps 752 mmHg 89%
07:00 +10°C° 0 mm 5 mps 752 mmHg 83%
08:00 +13°C° 0 mm 6 mps 753 mmHg 77%
09:00 +14°C° 0 mm 6 mps 753 mmHg 71%
10:00 +14°C° 0.1 mm 7 mps 753 mmHg 70%
11:00 +15°C° 0.1 mm 7 mps 754 mmHg 69%
12:00 +15°C° 0.1 mm 7 mps 754 mmHg 68%
13:00 +15°C° 0 mm 7 mps 754 mmHg 68%
14:00 +15°C° 0 mm 7 mps 754 mmHg 67%
15:00 +15°C° 0 mm 7 mps 754 mmHg 67%
16:00 +15°C° 0 mm 7 mps 755 mmHg 70%
17:00 +14°C° 0 mm 6 mps 755 mmHg 72%
18:00 +14°C° 0 mm 6 mps 755 mmHg 74%
19:00 +13°C° 0 mm 5 mps 755 mmHg 79%
20:00 +11°C° 0 mm 4 mps 756 mmHg 85%
21:00 +10°C° 0 mm 4 mps 756 mmHg 90%
22:00 +9°C° 0 mm 3 mps 757 mmHg 91%
23:00 +9°C° 0 mm 3 mps 757 mmHg 91%

11 July, Saturday

Time Temperature Precipitation Wind Pressure Humidity
00:00 +8°C° 0 mm 2 mps 757 mmHg 92%
01:00 +8°C° 0 mm 2 mps 757 mmHg 92%
02:00 +8°C° 0 mm 2 mps 758 mmHg 92%
03:00 +8°C° 0 mm 2 mps 758 mmHg 92%
04:00 +9°C° 0 mm 2 mps 758 mmHg 91%
05:00 +10°C° 0 mm 2 mps 758 mmHg 91%
06:00 +12°C° 0 mm 2 mps 758 mmHg 90%
07:00 +13°C° 0 mm 2 mps 759 mmHg 84%
08:00 +15°C° 0 mm 2 mps 759 mmHg 78%
09:00 +16°C° 0 mm 3 mps 759 mmHg 73%
10:00 +17°C° 0 mm 3 mps 759 mmHg 69%
11:00 +18°C° 0 mm 3 mps 760 mmHg 66%
12:00 +18°C° 0 mm 3 mps 760 mmHg 63%
13:00 +18°C° 0 mm 4 mps 760 mmHg 65%
14:00 +18°C° 0 mm 4 mps 760 mmHg 67%
15:00 +17°C° 0 mm 5 mps 759 mmHg 69%
16:00 +18°C° 0 mm 4 mps 759 mmHg 71%
17:00 +17°C° 0 mm 4 mps 759 mmHg 74%
18:00 +17°C° 0 mm 4 mps 759 mmHg 76%
19:00 +14°C° 0 mm 3 mps 760 mmHg 80%
20:00 +12°C° 0 mm 3 mps 760 mmHg 85%
21:00 +12°C° 0 mm 2 mps 760 mmHg 89%
22:00 +10°C° 0 mm 2 mps 760 mmHg 88%
23:00 +9°C° 0 mm 2 mps 760 mmHg 88%

12 July, Sunday

Time Temperature Precipitation Wind Pressure Humidity
00:00 +10°C° 0 mm 1 mps 760 mmHg 87%
01:00 +9°C° 0 mm 1 mps 760 mmHg 86%
02:00 +9°C° 0 mm 1 mps 759 mmHg 85%
03:00 +9°C° 0 mm 1 mps 759 mmHg 85%
04:00 +10°C° 0 mm 1 mps 759 mmHg 84%
05:00 +11°C° 0 mm 1 mps 759 mmHg 83%
06:00 +11°C° 0 mm 0 mps 759 mmHg 82%
07:00 +13°C° 0 mm 1 mps 760 mmHg 77%
08:00 +15°C° 0 mm 1 mps 760 mmHg 72%
09:00 +16°C° 0 mm 1 mps 760 mmHg 66%
10:00 +18°C° 0 mm 1 mps 760 mmHg 64%
11:00 +17°C° 0 mm 2 mps 760 mmHg 62%
12:00 +18°C° 0 mm 2 mps 760 mmHg 60%
13:00 +18°C° 0 mm 2 mps 760 mmHg 60%
14:00 +18°C° 0 mm 2 mps 759 mmHg 61%
15:00 +18°C° 0 mm 2 mps 759 mmHg 61%
16:00 +18°C° 0 mm 2 mps 759 mmHg 65%
17:00 +17°C° 0 mm 2 mps 759 mmHg 69%
18:00 +17°C° 0 mm 3 mps 759 mmHg 73%
19:00 +15°C° 0 mm 2 mps 759 mmHg 77%
20:00 +13°C° 0 mm 2 mps 759 mmHg 81%
21:00 +12°C° 0 mm 1 mps 759 mmHg 85%
22:00 +11°C° 0 mm 1 mps 758 mmHg 85%
23:00 +11°C° 0 mm 1 mps 758 mmHg 85%

13 July, Monday

Time Temperature Precipitation Wind Pressure Humidity
00:00 +11°C° 0 mm 1 mps 758 mmHg 84%
01:00 +11°C° 0 mm 1 mps 758 mmHg 84%
02:00 +10°C° 0 mm 2 mps 757 mmHg 84%
03:00 +10°C° 0 mm 2 mps 757 mmHg 84%
04:00 +12°C° 0 mm 2 mps 757 mmHg 85%
05:00 +12°C° 0 mm 2 mps 757 mmHg 85%
06:00 +13°C° 0 mm 2 mps 756 mmHg 86%
07:00 +13°C° 0 mm 3 mps 756 mmHg 84%
08:00 +14°C° 0 mm 4 mps 756 mmHg 82%
09:00 +15°C° 0 mm 4 mps 756 mmHg 81%
10:00 +15°C° 0 mm 5 mps 756 mmHg 81%
11:00 +15°C° 0 mm 5 mps 756 mmHg 82%
12:00 +15°C° 0 mm 5 mps 756 mmHg 82%
13:00 +16°C° 0 mm 5 mps 756 mmHg 82%
14:00 +16°C° 0 mm 5 mps 755 mmHg 82%
15:00 +16°C° 0 mm 6 mps 755 mmHg 82%
16:00 +16°C° 0.1 mm 6 mps 754 mmHg 84%
17:00 +16°C° 0.1 mm 6 mps 754 mmHg 85%
18:00 +16°C° 0.1 mm 6 mps 754 mmHg 86%
19:00 +14°C° 0 mm 5 mps 754 mmHg 89%
20:00 +13°C° 0 mm 4 mps 754 mmHg 93%
21:00 +12°C° 0 mm 4 mps 754 mmHg 96%
22:00 +12°C° 0 mm 4 mps 754 mmHg 96%
23:00 +11°C° 0 mm 3 mps 754 mmHg 96%
Show more